When you browse on this site, cookies collect data to enhance your experience and personalize the content and advertising you see.
Visit our Privacy Policy to learn more. By continuing to use the site, you agree to this use of cookies and data.
  • In Hungary
  • List of Countries
  • For 7 days
  • Water Temperature
  • Weather Map
  • News
  • Weather Widgets
  • user-avatar
    Login

    Hourly Weather Plotnikovo

    Today, 27 January, Monday

    Time Temperature Precipitation Wind Pressure Humidity
    00:00 -16°C° 0 mm 4 mps 748 mmHg 89%
    01:00 -17°C° 0 mm 4 mps 748 mmHg 89%
    02:00 -17°C° 0 mm 4 mps 748 mmHg 89%
    03:00 -18°C° 0 mm 4 mps 748 mmHg 89%
    04:00 -19°C° 0 mm 5 mps 747 mmHg 87%
    05:00 -19°C° 0 mm 5 mps 747 mmHg 86%
    06:00 -18°C° 0 mm 5 mps 747 mmHg 85%
    07:00 -17°C° 0 mm 5 mps 746 mmHg 84%
    08:00 -17°C° 0 mm 5 mps 746 mmHg 83%
    09:00 -15°C° 0 mm 5 mps 745 mmHg 82%
    10:00 -14°C° 0 mm 6 mps 744 mmHg 79%
    11:00 -12°C° 0 mm 6 mps 744 mmHg 76%
    12:00 -11°C° 0 mm 7 mps 743 mmHg 74%
    13:00 -11°C° 0 mm 7 mps 743 mmHg 75%
    14:00 -11°C° 0 mm 7 mps 742 mmHg 77%
    15:00 -9°C° 0 mm 7 mps 742 mmHg 78%
    16:00 -9°C° 0.1 mm 7 mps 741 mmHg 82%
    17:00 -9°C° 0.1 mm 7 mps 741 mmHg 85%
    18:00 -8°C° 0.1 mm 7 mps 741 mmHg 89%
    19:00 -8°C° 0.1 mm 7 mps 741 mmHg 89%
    20:00 -8°C° 0.1 mm 6 mps 740 mmHg 90%
    21:00 -8°C° 0.1 mm 6 mps 740 mmHg 91%
    22:00 -8°C° 0.2 mm 6 mps 740 mmHg 91%
    23:00 -8°C° 0.2 mm 6 mps 740 mmHg 91%

    Tomorrow, 28 January, Tuesday

    Time Temperature Precipitation Wind Pressure Humidity
    00:00 -6°C° 0.2 mm 6 mps 740 mmHg 91%
    01:00 -6°C° 0.1 mm 5 mps 740 mmHg 91%
    02:00 -6°C° 0.1 mm 5 mps 740 mmHg 91%
    03:00 -6°C° 0.1 mm 5 mps 740 mmHg 92%
    04:00 -6°C° 0.1 mm 5 mps 740 mmHg 92%
    05:00 -6°C° 0.1 mm 5 mps 740 mmHg 92%
    06:00 -6°C° 0.1 mm 5 mps 741 mmHg 93%
    07:00 -7°C° 0.1 mm 4 mps 741 mmHg 91%
    08:00 -8°C° 0.1 mm 4 mps 741 mmHg 90%
    09:00 -9°C° 0.1 mm 4 mps 741 mmHg 88%
    10:00 -8°C° 0.1 mm 4 mps 742 mmHg 88%
    11:00 -8°C° 0.1 mm 5 mps 742 mmHg 88%
    12:00 -7°C° 0.1 mm 5 mps 742 mmHg 88%
    13:00 -8°C° 0.1 mm 5 mps 742 mmHg 88%
    14:00 -8°C° 0.1 mm 5 mps 742 mmHg 88%
    15:00 -10°C° 0.1 mm 5 mps 743 mmHg 89%
    16:00 -10°C° 0.1 mm 5 mps 743 mmHg 90%
    17:00 -11°C° 0.1 mm 5 mps 743 mmHg 91%
    18:00 -11°C° 0.1 mm 5 mps 743 mmHg 92%
    19:00 -11°C° 0.2 mm 4 mps 743 mmHg 92%
    20:00 -11°C° 0.2 mm 4 mps 743 mmHg 93%
    21:00 -10°C° 0.2 mm 3 mps 744 mmHg 93%
    22:00 -10°C° 0.1 mm 3 mps 743 mmHg 94%
    23:00 -10°C° 0.1 mm 2 mps 743 mmHg 94%

    Day after tomorrow, 29 January, Wednesday

    Time Temperature Precipitation Wind Pressure Humidity
    00:00 -10°C° 0.1 mm 2 mps 743 mmHg 95%
    01:00 -10°C° 0.1 mm 2 mps 743 mmHg 95%
    02:00 -10°C° 0.1 mm 1 mps 743 mmHg 96%
    03:00 -10°C° 0.1 mm 1 mps 743 mmHg 96%
    04:00 -10°C° 0.1 mm 1 mps 743 mmHg 96%
    05:00 -10°C° 0.1 mm 1 mps 743 mmHg 96%
    06:00 -11°C° 0.1 mm 1 mps 743 mmHg 96%
    07:00 -11°C° 0.1 mm 1 mps 743 mmHg 96%
    08:00 -14°C° 0.1 mm 2 mps 744 mmHg 95%
    09:00 -14°C° 0.1 mm 2 mps 745 mmHg 95%
    10:00 -16°C° 0 mm 3 mps 746 mmHg 94%
    11:00 -17°C° 0 mm 3 mps 747 mmHg 93%
    12:00 -18°C° 0 mm 4 mps 748 mmHg 92%
    13:00 -19°C° 0 mm 4 mps 749 mmHg 91%
    14:00 -20°C° 0 mm 4 mps 750 mmHg 91%
    15:00 -22°C° 0 mm 4 mps 751 mmHg 91%
    16:00 -22°C° 0.1 mm 5 mps 752 mmHg 92%
    17:00 -24°C° 0.1 mm 5 mps 753 mmHg 92%
    18:00 -25°C° 0.1 mm 5 mps 754 mmHg 93%
    19:00 -25°C° 0 mm 4 mps 755 mmHg 93%
    20:00 -25°C° 0 mm 4 mps 755 mmHg 93%
    21:00 -26°C° 0 mm 4 mps 756 mmHg 93%
    22:00 -27°C° 0 mm 4 mps 757 mmHg 94%
    23:00 -27°C° 0 mm 4 mps 757 mmHg 94%

    30 January, Thursday

    Time Temperature Precipitation Wind Pressure Humidity
    00:00 -29°C° 0 mm 4 mps 758 mmHg 94%
    01:00 -29°C° 0 mm 4 mps 758 mmHg 94%
    02:00 -29°C° 0 mm 4 mps 758 mmHg 94%
    03:00 -29°C° 0 mm 4 mps 759 mmHg 93%
    04:00 -29°C° 0 mm 4 mps 759 mmHg 94%
    05:00 -27°C° 0 mm 3 mps 760 mmHg 95%
    06:00 -27°C° 0 mm 3 mps 760 mmHg 95%
    07:00 -29°C° 0 mm 3 mps 760 mmHg 95%
    08:00 -29°C° 0 mm 3 mps 761 mmHg 95%
    09:00 -29°C° 0 mm 3 mps 761 mmHg 95%
    10:00 -29°C° 0 mm 3 mps 762 mmHg 95%
    11:00 -29°C° 0 mm 3 mps 762 mmHg 95%
    12:00 -29°C° 0 mm 3 mps 762 mmHg 95%
    13:00 -29°C° 0 mm 3 mps 762 mmHg 95%
    14:00 -29°C° 0 mm 3 mps 762 mmHg 95%
    15:00 -27°C° 0 mm 3 mps 762 mmHg 94%
    16:00 -29°C° 0 mm 3 mps 762 mmHg 94%
    17:00 -29°C° 0 mm 3 mps 762 mmHg 94%
    18:00 -30°C° 0 mm 3 mps 762 mmHg 94%
    19:00 -30°C° 0 mm 3 mps 762 mmHg 95%
    20:00 -29°C° 0 mm 3 mps 762 mmHg 95%
    21:00 -29°C° 0 mm 3 mps 762 mmHg 95%
    22:00 -30°C° 0 mm 3 mps 761 mmHg 95%
    23:00 -30°C° 0 mm 3 mps 761 mmHg 95%

    31 January, Friday

    Time Temperature Precipitation Wind Pressure Humidity
    00:00 -28°C° 0 mm 2 mps 761 mmHg 96%
    01:00 -28°C° 0 mm 2 mps 761 mmHg 96%
    02:00 -27°C° 0 mm 2 mps 761 mmHg 96%
    03:00 -27°C° 0 mm 2 mps 761 mmHg 97%
    04:00 -27°C° 0 mm 2 mps 760 mmHg 97%
    05:00 -27°C° 0 mm 2 mps 760 mmHg 97%
    06:00 -27°C° 0 mm 2 mps 760 mmHg 97%
    07:00 -27°C° 0 mm 2 mps 760 mmHg 97%
    08:00 -27°C° 0 mm 2 mps 760 mmHg 97%
    09:00 -24°C° 0 mm 1 mps 760 mmHg 97%
    10:00 -26°C° 0 mm 2 mps 760 mmHg 96%
    11:00 -25°C° 0 mm 2 mps 760 mmHg 95%
    12:00 -24°C° 0 mm 2 mps 760 mmHg 94%
    13:00 -24°C° 0 mm 2 mps 760 mmHg 94%
    14:00 -21°C° 0 mm 1 mps 760 mmHg 94%
    15:00 -20°C° 0 mm 1 mps 760 mmHg 94%
    16:00 -21°C° 0 mm 1 mps 760 mmHg 95%
    17:00 -21°C° 0 mm 1 mps 760 mmHg 97%
    18:00 -22°C° 0 mm 1 mps 761 mmHg 98%
    19:00 -22°C° 0 mm 1 mps 761 mmHg 98%
    20:00 -23°C° 0 mm 1 mps 761 mmHg 99%
    21:00 -23°C° 0 mm 1 mps 761 mmHg 99%
    22:00 -24°C° 0 mm 0 mps 761 mmHg 99%
    23:00 -24°C° 0 mm 0 mps 761 mmHg 99%

    1 February, Saturday

    Time Temperature Precipitation Wind Pressure Humidity
    00:00 -25°C° 0 mm 0 mps 761 mmHg 99%
    01:00 -25°C° 0 mm 0 mps 761 mmHg 99%
    02:00 -25°C° 0 mm 0 mps 761 mmHg 99%
    03:00 -26°C° 0 mm 0 mps 761 mmHg 99%
    04:00 -26°C° 0 mm 0 mps 762 mmHg 99%
    05:00 -26°C° 0 mm 0 mps 762 mmHg 99%
    06:00 -27°C° 0 mm 0 mps 762 mmHg 99%
    07:00 -26°C° 0 mm 0 mps 762 mmHg 99%
    08:00 -26°C° 0 mm 0 mps 762 mmHg 98%
    09:00 -25°C° 0 mm 1 mps 762 mmHg 98%
    10:00 -24°C° 0 mm 1 mps 762 mmHg 96%
    11:00 -22°C° 0 mm 1 mps 762 mmHg 94%
    12:00 -20°C° 0 mm 1 mps 762 mmHg 92%
    13:00 -19°C° 0 mm 1 mps 762 mmHg 92%
    14:00 -19°C° 0 mm 1 mps 762 mmHg 92%
    15:00 -18°C° 0 mm 0 mps 762 mmHg 92%
    16:00 -19°C° 0.1 mm 1 mps 762 mmHg 94%
    17:00 -19°C° 0.1 mm 1 mps 762 mmHg 96%
    18:00 -20°C° 0.1 mm 1 mps 762 mmHg 98%
    19:00 -20°C° 0.1 mm 1 mps 761 mmHg 98%
    20:00 -20°C° 0.1 mm 1 mps 761 mmHg 98%
    21:00 -20°C° 0.1 mm 1 mps 761 mmHg 98%
    22:00 -20°C° 0.1 mm 1 mps 761 mmHg 98%
    23:00 -20°C° 0.1 mm 1 mps 761 mmHg 98%
    Show more